Zurück zum Katalog

STARLINK-6242

AktivKommunikationVLEO
NORAD 56424·PAYLOAD·🇺🇸 United States

Gestartet May 4, 2023 von Cape Canaveral Space Force Station

Loading…

Nächste Überflüge (nächste 24 Stunden)

TLE

AktuellSource: CelesTrak SupGP

Epoche: Sep 15, 2026, 02:22 UTC

1 56424C 23061BC  26258.09909722 -.00036238  00000+0 -13130-2 0  2585
2 56424  43.0005 190.0571 0001421 271.2462 146.5511 15.27585102    10

Verfolge STARLINK-6242 in Echtzeit mit AllMySat

Download on the App Store